DW7285 Weather Reports


time (UTC)temp
C
wind
direction
speed
KPH
gust
KPH
rain 1hr
cm
rain 24hr
cm
rain mn
cm
humidity
%
barometer
mb
20260906131507 21 94 3.2 8.0 0.00 0.00 0.00 97 1014.6
20260906130003 21 44 1.6 8.0 0.00 0.00 0.00 97 1014.4
20260906124502 21 79 0.0 3.2 0.00 0.00 0.00 97 1014.4
20260906123005 21 41 3.2 11.3 0.00 0.00 0.00 97 1014.3
20260906121601 21 74 0.0 4.8 0.00 0.00 0.00 97 1014.3
20260906114556 21 74 0.0 1.6 0.00 0.00 0.00 97 1014.0
20260906113053 21 98 0.0 3.2 0.00 0.00 0.00 97 1013.7
20260906111551 21 82 0.0 0.0 0.00 0.00 0.00 97 1013.4
20260906110050 21 82 1.6 3.2 0.00 0.00 0.00 96 1013.2
20260906104547 21 93 0.0 3.2 0.00 0.00 0.00 96 1013.0
20260906103046 21 90 0.0 6.4 0.00 0.00 0.00 95 1013.0
20260906101545 21 105 0.0 3.2 0.00 0.00 0.00 95 1013.0
20260906100042 22 99 0.0 1.6 0.00 0.00 0.00 95 1012.9
20260906094539 22 95 0.0 4.8 0.00 0.00 0.00 94 1012.7
20260906093051 22 84 1.6 4.8 0.00 0.00 0.00 94 1012.6
20260906091536 22 91 0.0 3.2 0.00 0.00 0.00 93 1012.5
20260906090034 22 51 0.0 1.6 0.00 0.00 0.00 93 1012.6
20260906084537 23 86 0.0 3.2 0.00 0.00 0.00 93 1012.4
20260906083029 23 74 0.0 1.6 0.00 0.00 0.00 92 1012.5
20260906081530 23 81 0.0 3.2 0.00 0.00 0.00 91 1012.4
20260906080026 23 66 0.0 3.2 0.00 0.00 0.00 91 1012.3
20260906074526 24 76 0.0 4.8 0.00 0.00 0.00 91 1012.3
20260906073027 24 100 0.0 1.6 0.00 0.00 0.00 92 1012.3
20260906071521 25 75 0.0 1.6 0.00 0.00 0.00 92 1012.3
20260906070018 25 86 0.0 1.6 0.00 0.00 0.00 92 1012.3
20260906064518 25 63 0.0 0.0 0.00 0.00 0.00 93 1012.4
20260906063015 25 63 0.0 1.6 0.00 0.00 0.00 92 1012.3
20260906061513 25 65 0.0 1.6 0.00 0.00 0.00 91 1012.3
20260906060018 26 79 0.0 1.6 0.00 0.00 0.00 90 1012.4
20260906054508 26 86 0.0 6.4 0.00 0.00 0.00 90 1012.4
20260906053015 26 91 0.0 3.2 0.00 0.00 0.00 89 1012.3
20260906051504 26 78 1.6 9.7 0.00 0.00 0.00 88 1012.2
20260906050002 26 90 0.0 4.8 0.00 0.00 0.00 88 1012.2
20260906044600 26 79 0.0 3.2 0.00 0.00 0.00 87 1012.0
20260906043059 27 91 0.0 1.6 0.00 0.00 0.00 87 1011.8
20260906041559 27 90 0.0 1.6 0.00 0.00 0.00 86 1011.8
20260906040059 27 141 0.0 0.0 0.00 0.00 0.00 85 1011.6
20260906034558 27 141 0.0 1.6 0.00 0.00 0.00 84 1011.4
20260906033101 27 141 0.0 1.6 0.00 0.00 0.00 83 1011.2
20260906031559 27 141 0.0 0.0 0.00 0.00 0.00 82 1011.2
20260906030056 27 141 0.0 1.6 0.00 0.00 0.00 82 1011.2
20260906024555 27 141 0.0 0.0 0.00 0.00 0.00 81 1011.0
20260906023055 27 141 0.0 0.0 0.00 0.00 0.00 79 1010.9
20260906021559 28 141 0.0 0.0 0.00 0.00 0.00 78 1010.7
20260906020055 28 141 0.0 1.6 0.00 0.00 0.00 77 1010.4
20260906014601 28 141 0.0 0.0 0.00 0.00 0.00 76 1010.2
20260906013052 28 141 0.0 0.0 0.00 0.00 0.00 75 1010.1
20260906011604 28 141 0.0 1.6 0.00 0.00 0.00 74 1010.0
20260906010051 28 141 0.0 0.0 0.00 0.00 0.00 71 1009.7
20260906004550 29 141 0.0 0.0 0.00 0.00 0.00 70 1009.6
20260906003050 30 141 0.0 0.0 0.00 0.00 0.00 68 1009.5
20260906001556 30 141 0.0 0.0 0.00 0.00 0.00 66 1009.5
20260906000050 31 141 0.0 0.0 0.00 0.00 0.00 64 1009.6
20260905234548 31 141 0.0 1.6 0.00 0.00 0.00 63 1009.6
20260905233105 31 141 0.0 1.6 0.00 0.00 0.00 61 1009.5
20260905231553 32 15 0.0 1.6 0.00 0.00 0.00 57 1009.6
20260905230048 32 15 0.0 1.6 0.00 0.00 0.00 55 1010.0
20260905224605 33 32 0.0 8.0 0.00 0.00 0.00 52 1009.9
20260905223044 35 63 0.0 3.2 0.00 0.00 0.00 53 1009.7
20260905221543 38 64 0.0 3.2 0.00 0.00 0.00 46 1009.7
20260905220048 39 72 0.0 1.6 0.00 0.00 0.00 44 1009.5
20260905214541 40 1 0.0 3.2 0.00 0.00 0.00 43 1009.2
20260905213038 40 227 0.0 3.2 0.00 0.00 0.00 43 1009.2
20260905211537 40 200 0.0 3.2 0.00 0.00 0.00 42 1009.3
20260905210036 39 159 0.0 3.2 0.00 0.00 0.00 43 1009.4
20260905204534 38 54 0.0 1.6 0.00 0.00 0.00 44 1009.6
20260905203038 40 343 0.0 3.2 0.00 0.00 0.00 41 1009.7
20260905201532 40 119 0.0 6.4 0.00 0.00 0.00 44 1009.8
20260905200031 41 143 0.0 3.2 0.00 0.00 0.00 39 1010.0
20260905194526 40 61 0.0 6.4 0.00 0.00 0.00 42 1010.1
20260905193023 40 298 0.0 4.8 0.00 0.00 0.00 41 1010.2
20260905191521 40 125 0.0 4.8 0.00 0.00 0.00 40 1010.5
20260905190017 40 111 0.0 6.4 0.00 0.00 0.00 42 1010.6
20260905184517 39 186 0.0 4.8 0.00 0.00 0.00 44 1010.8
20260905183011 38 207 1.6 6.4 0.00 0.00 0.00 46 1011.0
20260905181509 39 217 0.0 8.0 0.00 0.00 0.00 48 1011.3
20260905180005 39 217 0.0 1.6 0.00 0.00 0.00 48 1011.4
20260905174507 38 121 0.0 6.4 0.00 0.00 0.00 50 1011.3
20260905173006 38 72 1.6 4.8 0.00 0.00 0.00 51 1011.4
20260905171558 38 200 0.0 0.0 0.00 0.00 0.00 51 1011.6
20260905170059 37 146 0.0 0.0 0.00 0.00 0.00 53 1011.8
20260905164552 37 256 0.0 0.0 0.00 0.00 0.00 54 1011.9
20260905163051 36 181 0.0 0.0 0.00 0.00 0.00 56 1012.2
20260905161547 36 233 0.0 3.2 0.00 0.00 0.00 56 1012.3
20260905160043 35 270 0.0 1.6 0.00 0.00 0.00 59 1012.4
20260905154541 35 262 0.0 3.2 0.00 0.00 0.00 59 1012.5
20260905153038 34 53 0.0 4.8 0.00 0.00 0.00 60 1012.4
20260905151535 33 200 0.0 4.8 0.00 0.00 0.00 60 1012.5
20260905150032 33 249 1.6 8.0 0.00 0.00 0.00 62 1012.4
20260905144528 32 210 1.6 3.2 0.00 0.00 0.00 63 1012.3
20260905143030 31 135 0.0 1.6 0.00 0.00 0.00 67 1012.3
20260905141529 31 107 0.0 1.6 0.00 0.00 0.00 68 1012.4
20260905140027 32 236 0.0 3.2 0.00 0.00 0.00 65 1012.3
20260905134524 32 173 0.0 3.2 0.00 0.00 0.00 64 1012.3
20260905133020 31 225 0.0 1.6 0.00 0.00 0.00 69 1012.2